{"data":{"norad_id":44034,"epoch":"2026-05-25T03:55:46.193376Z","epoch_age_seconds":64373,"freshness":"FRESH","line1":"1 44034U 19007A   26145.16372909  .00000150  00000+0  00000+0 0  9991","line2":"2 44034   0.0655 124.4274 0004408  10.7828 205.5059  1.00270755 27135","mean_motion":1.00270755,"eccentricity":0.0004408,"inclination_deg":0.0655,"raan_deg":124.4274,"arg_perigee_deg":10.7828,"mean_anomaly_deg":205.5059,"bstar":0,"rev_number":2713,"period_min":1436.1116558861,"perigee_km":35768.297368923,"apogee_km":35805.470051181,"semimajor_km":42165.020710052,"source":"CELESTRAK","updated_at":"2026-05-25T13:38:14.061172Z"}}